Flag for Germany Weather past 2 weeks in Goch, North Rhine-Westphalia, Germany

Now
68 °F

Passing clouds.


Feels Like: 68 °F
Forecast: 52 / 67 °F
Wind: 9 mph from West

Location: Niederrhein

Current Time: Sep 1, 2015 at 2:31:55 AM

Latest Report: Aug 31, 2015 at 11:50 PM


Visibility: 6 mi

Pressure: 29.80 "Hg

Humidity: 100%

Dew point: 68 °F

Location of GochLocation

Historic Weather in Goch — Graph

°F

Goch temperature yesterday

Maximum temperature yesterday: 88 °F (at 3:50 PM)
Minimum temperature yesterday: 64 °F (at 6:20 AM)
Average temperature yesterday: 75 °F

Past Weeks' High & Low Weather Summary

 TemperatureHumidityPressure
High88 °F (Aug 31, 3:50 PM)100% (Aug 17, 4:50 AM)30.24 "Hg (Aug 17, 4:50 AM)
Low52 °F (Aug 20, 5:50 AM)30% (Aug 23, 2:20 PM)29.50 "Hg (Aug 24, 3:20 PM)
Average67 °F73%29.96 "Hg
* Reported Aug 16 11:20 PM — Aug 31 11:50 PM, Goch, Weather by CustomWeather, © 2015

Note: Actual official high and low records may vary slightly from our data, if they occured in-between our weather recording intervals... More about our weather records

Advertising

Goch weather history for previous 24 hours

 ConditionsComfort  
Time TempWeatherWind HumidityBarometerVisibility
11:50 PM
Mon, Aug 31
68 °FPassing clouds.9 mph100%29.80 "Hg6 mi
11:20 PM68 °FPassing clouds.7 mph100%29.80 "Hg6 mi
10:50 PM68 °FPassing clouds.7 mph100%29.80 "HgN/A
9:50 PM68 °FSunny.9 mph100%29.80 "Hg10 mi
9:20 PM68 °FSunny.7 mph100%29.80 "Hg10 mi
8:50 PM70 °FLight rain. Clear.10 mph100%29.80 "HgN/A
8:20 PM70 °FRain showers. Partly sunny.9 mph100%29.80 "Hg3 mi
7:50 PM70 °FSprinkles. Clear.10 mph94%29.80 "Hg4 mi
7:20 PM73 °FSunny.14 mph78%29.80 "Hg10 mi
6:50 PM77 °FPassing clouds.9 mph74%29.80 "HgN/A
6:20 PM77 °FSunny.15 mph74%29.77 "Hg10 mi
5:50 PM82 °FSunny.8 mph55%29.77 "Hg10 mi
5:20 PM84 °FSunny.13 mph48%29.74 "Hg10 mi
4:50 PM84 °FPassing clouds.12 mph48%29.77 "HgN/A
4:20 PM86 °FPassing clouds.12 mph43%29.77 "HgN/A
3:50 PM88 °FPassing clouds.9 mph40%29.74 "HgN/A
3:20 PM86 °FPassing clouds.10 mph46%29.77 "HgN/A
2:50 PM86 °FPassing clouds.9 mph46%29.77 "HgN/A
2:20 PM84 °FPassing clouds.10 mph48%29.77 "HgN/A
1:50 PM82 °FPassing clouds.9 mph51%29.80 "HgN/A
1:20 PM82 °FPassing clouds.8 mph51%29.80 "HgN/A
12:50 PM82 °FPassing clouds.8 mph48%29.80 "HgN/A
12:20 PM81 °FPassing clouds.8 mph58%29.80 "HgN/A
11:50 AM81 °FPassing clouds.7 mph62%29.83 "HgN/A
11:20 AM79 °FPassing clouds.7 mph70%29.83 "HgN/A
10:50 AM77 °FPassing clouds.7 mph74%29.83 "HgN/A
10:20 AM75 °FPassing clouds.7 mph83%29.83 "HgN/A
9:50 AM73 °FPassing clouds.5 mph83%29.86 "HgN/A
9:20 AM72 °FSunny.3 mph88%29.86 "Hg10 mi
8:50 AM70 °FPassing clouds.5 mph88%29.86 "HgN/A
8:20 AM68 °FClear.3 mph94%29.86 "Hg10 mi
7:50 AM66 °FClear.3 mph100%29.86 "Hg10 mi
7:20 AM66 °FClear.3 mph100%29.89 "Hg10 mi
6:50 AM64 °FClear.2 mph100%29.89 "Hg10 mi
6:20 AM64 °FClear.No wind100%29.89 "Hg10 mi
5:50 AM68 °FClear.2 mph94%29.89 "Hg10 mi
5:20 AM68 °FPassing clouds.5 mph94%29.89 "HgN/A
4:50 AM68 °FPassing clouds.5 mph88%29.92 "HgN/A
Weather by CustomWeather, © 2015

See weather overviewHow to use our weather pages